Simultaneous Nadir Overpasses (SNOs) Predictions

Prediction of SNOs between METOP-B and NOAA-19 Satellite Orbit:

Table of predicted SNOs for the next 14.0 days since TLE Epoch: 1/2/2015
Index Date (METOP-B) Time (METOP-B) Lat,Lon (METOP-B) SZA (METOP-B ) Date (NOAA-19) Time (NOAA-19) Lat,Lon (NOAA-19) SZA (NOAA-19 ) Distance(km) Time Diff (sec)
1 01/06/2015 00:08:21 -74.82, -5.00 82.67 01/06/2015 00:07:10 -74.83, -6.76 82.62 51.14 71
2 01/06/2015 00:59:08 74.47, 161.38 97.00 01/06/2015 00:58:04 74.47, 161.48 97.00 3.00 64
3 01/06/2015 01:49:50 -74.47, -31.31 83.02 01/06/2015 01:49:06 -74.49, -31.33 82.99 2.73 44
4 01/06/2015 02:40:30 74.46, 136.00 96.97 01/06/2015 02:40:07 74.47, 135.98 96.99 1.39 23
5 01/06/2015 03:31:12 -74.45, -56.69 83.04 01/06/2015 03:31:08 -74.44, -56.70 83.05 1.00 4
6 01/06/2015 04:21:52 74.44, 110.61 96.95 01/06/2015 04:22:09 74.42, 110.61 96.92 2.39 17
7 01/06/2015 05:12:34 -74.43, -82.08 83.07 01/06/2015 05:13:11 -74.44, -82.20 83.06 3.74 37
8 01/06/2015 06:03:14 74.42, 85.22 96.92 01/06/2015 06:04:12 74.41, 85.11 96.91 3.46 58
9 01/06/2015 06:53:58 -74.32,-107.72 83.19 01/06/2015 06:55:12 -74.34,-107.45 83.18 8.54 74
10 01/16/2015 10:09:44 -74.50,-156.16 84.55 01/16/2015 10:08:28 -74.52,-156.09 84.53 2.79 76
11 01/16/2015 11:00:24 74.49, 11.14 95.44 01/16/2015 10:59:32 74.52, 11.15 95.47 2.64 52
12 01/16/2015 11:51:05 -74.48, 178.45 84.58 01/16/2015 11:50:29 -74.47, 178.54 84.60 3.23 36
13 01/16/2015 12:41:45 74.47, -14.25 95.41 01/16/2015 12:41:33 74.47, -14.22 95.40 1.18 12
14 01/16/2015 13:32:27 -74.47, 153.06 84.61 01/16/2015 13:32:32 -74.47, 153.03 84.61 0.82 5
15 01/16/2015 14:23:07 74.45, -39.64 95.38 01/16/2015 14:23:36 74.46, -39.73 95.38 2.81 29
16 01/16/2015 15:13:49 -74.45, 127.67 84.64 01/16/2015 15:14:34 -74.42, 127.65 84.68 3.43 45
17 01/16/2015 16:04:30 74.39, -65.15 95.30 01/16/2015 16:05:38 74.41, -65.10 95.32 3.19 68




NCC Satellite Simultaneous Nadir Overpasses (SNOs) Prediction Service
